Year,Month,Day,Hour,Minute,Value (Times are PST for temperature in C)
2007,12,04,00,00,6.00
2007,12,04,00,01,6.00
2007,12,04,00,02,6.00
2007,12,04,00,03,6.00
2007,12,04,00,04,6.00
2007,12,04,00,05,6.00
2007,12,04,00,06,6.10
2007,12,04,00,07,6.20
2007,12,04,00,08,6.20
2007,12,04,00,09,6.20
2007,12,04,00,10,6.30
2007,12,04,00,11,6.60
2007,12,04,00,12,6.90
2007,12,04,00,13,6.90
2007,12,04,00,14,7.10
2007,12,04,00,15,7.90
2007,12,04,00,16,8.60
2007,12,04,00,17,8.90
2007,12,04,00,18,9.00
2007,12,04,00,19,9.20
2007,12,04,00,20,9.20
2007,12,04,00,21,9.40
2007,12,04,00,22,9.50
2007,12,04,00,23,9.70
2007,12,04,00,24,9.80
2007,12,04,00,25,10.00
2007,12,04,00,26,10.20
2007,12,04,00,27,10.40
2007,12,04,00,28,10.40
2007,12,04,00,29,10.50
2007,12,04,00,30,10.60
2007,12,04,00,31,10.60
2007,12,04,00,32,10.60
2007,12,04,00,33,10.70
2007,12,04,00,34,10.70
2007,12,04,00,35,10.70
2007,12,04,00,36,10.70
2007,12,04,00,37,10.80
2007,12,04,00,38,10.80
2007,12,04,00,39,10.90
2007,12,04,00,40,10.90
2007,12,04,00,41,10.90
2007,12,04,00,42,10.90
2007,12,04,00,43,10.90
2007,12,04,00,44,10.90
2007,12,04,00,45,10.90
2007,12,04,00,46,10.90
2007,12,04,00,47,10.90
2007,12,04,00,48,10.90
2007,12,04,00,49,10.90
2007,12,04,00,50,10.90
2007,12,04,00,51,10.80
2007,12,04,00,52,10.70
2007,12,04,00,53,10.60
2007,12,04,00,54,10.50
2007,12,04,00,55,10.40
2007,12,04,00,56,10.40
2007,12,04,00,57,10.40
2007,12,04,00,58,10.40
2007,12,04,00,59,10.30
2007,12,04,01,00,10.30
2007,12,04,01,01,10.20
2007,12,04,01,02,10.20
2007,12,04,01,03,10.20
2007,12,04,01,04,10.20
2007,12,04,01,05,10.20
2007,12,04,01,06,10.20
2007,12,04,01,07,10.20
2007,12,04,01,08,10.30
2007,12,04,01,09,10.30
2007,12,04,01,10,10.30
2007,12,04,01,11,10.30
2007,12,04,01,12,10.30
2007,12,04,01,13,10.30
2007,12,04,01,14,10.30
2007,12,04,01,15,10.30
2007,12,04,01,16,10.30
2007,12,04,01,17,10.30
2007,12,04,01,18,10.30
2007,12,04,01,19,10.30
2007,12,04,01,20,10.30
2007,12,04,01,21,10.40
2007,12,04,01,22,10.50
2007,12,04,01,23,10.60
2007,12,04,01,24,10.60
2007,12,04,01,25,10.70
2007,12,04,01,26,10.80
2007,12,04,01,27,10.90
2007,12,04,01,28,10.90
2007,12,04,01,29,10.90
2007,12,04,01,30,10.90
2007,12,04,01,31,10.90
2007,12,04,01,32,10.90
2007,12,04,01,33,10.90
2007,12,04,01,34,10.90
2007,12,04,01,35,10.90
2007,12,04,01,36,10.90
2007,12,04,01,37,10.90
2007,12,04,01,38,10.90
2007,12,04,01,39,10.90
2007,12,04,01,40,10.90
2007,12,04,01,41,10.90
2007,12,04,01,42,10.90
2007,12,04,01,43,10.90
2007,12,04,01,44,10.80
2007,12,04,01,45,10.80
2007,12,04,01,46,10.80
2007,12,04,01,47,10.80
2007,12,04,01,48,10.80
2007,12,04,01,49,10.70
2007,12,04,01,50,10.70
2007,12,04,01,51,10.70
2007,12,04,01,52,10.70
2007,12,04,01,53,10.70
2007,12,04,01,54,10.60
2007,12,04,01,55,10.60
2007,12,04,01,56,10.60
2007,12,04,01,57,10.60
2007,12,04,01,58,10.70
2007,12,04,01,59,10.70
2007,12,04,02,00,10.80
2007,12,04,02,01,10.80
2007,12,04,02,02,10.80
2007,12,04,02,03,10.80
2007,12,04,02,04,10.80
2007,12,04,02,05,10.90
2007,12,04,02,06,10.90
2007,12,04,02,07,10.90
2007,12,04,02,08,10.90
2007,12,04,02,09,10.90
2007,12,04,02,10,11.10
2007,12,04,02,11,11.10
2007,12,04,02,12,11.10
2007,12,04,02,13,11.10
2007,12,04,02,14,11.10
2007,12,04,02,15,11.10
2007,12,04,02,16,11.10
2007,12,04,02,17,11.20
2007,12,04,02,18,11.20
2007,12,04,02,19,11.20
2007,12,04,02,20,11.30
2007,12,04,02,21,11.30
2007,12,04,02,22,11.40
2007,12,04,02,23,11.40
2007,12,04,02,24,11.40
2007,12,04,02,25,11.40
2007,12,04,02,26,11.40
2007,12,04,02,27,11.40
2007,12,04,02,28,11.40
2007,12,04,02,29,11.40
2007,12,04,02,30,11.50
2007,12,04,02,31,11.60
2007,12,04,02,32,11.60
2007,12,04,02,33,11.50
2007,12,04,02,34,11.40
2007,12,04,02,35,11.40
2007,12,04,02,36,11.40
2007,12,04,02,37,11.40
2007,12,04,02,38,11.40
2007,12,04,02,39,11.30
2007,12,04,02,40,11.30
2007,12,04,02,41,11.30
2007,12,04,02,42,11.40
2007,12,04,02,43,11.40
2007,12,04,02,44,11.40
2007,12,04,02,45,11.40
2007,12,04,02,46,11.40
2007,12,04,02,47,11.50
2007,12,04,02,48,11.60
2007,12,04,02,49,11.60
2007,12,04,02,50,11.50
2007,12,04,02,51,11.40
2007,12,04,02,52,11.40
2007,12,04,02,53,11.40
2007,12,04,02,54,11.40
2007,12,04,02,55,11.40
2007,12,04,02,56,11.30
2007,12,04,02,57,11.30
2007,12,04,02,58,11.30
2007,12,04,02,59,11.30
2007,12,04,03,00,11.30
2007,12,04,03,01,11.30
2007,12,04,03,02,11.20
2007,12,04,03,03,11.30
2007,12,04,03,04,11.30
2007,12,04,03,05,11.30
2007,12,04,03,06,11.30
2007,12,04,03,07,11.30
2007,12,04,03,08,11.30
2007,12,04,03,09,11.30
2007,12,04,03,10,11.30
2007,12,04,03,11,11.30
2007,12,04,03,12,11.30
2007,12,04,03,13,11.40
2007,12,04,03,14,11.40
2007,12,04,03,15,11.40
2007,12,04,03,16,11.60
2007,12,04,03,17,11.60
2007,12,04,03,18,11.60
2007,12,04,03,19,11.60
2007,12,04,03,20,11.60
2007,12,04,03,21,11.60
2007,12,04,03,22,11.60
2007,12,04,03,23,11.60
2007,12,04,03,24,11.60
2007,12,04,03,25,11.60
2007,12,04,03,26,11.60
2007,12,04,03,27,11.60
2007,12,04,03,28,11.60
2007,12,04,03,29,11.60
2007,12,04,03,30,11.60
2007,12,04,03,31,11.60
2007,12,04,03,32,11.60
2007,12,04,03,33,11.60
2007,12,04,03,34,11.60
2007,12,04,03,35,11.70
2007,12,04,03,36,11.70
2007,12,04,03,37,11.80
2007,12,04,03,38,11.80
2007,12,04,03,39,11.80
2007,12,04,03,40,11.80
2007,12,04,03,41,11.80
2007,12,04,03,42,11.80
2007,12,04,03,43,11.80
2007,12,04,03,44,11.80
2007,12,04,03,45,11.80
2007,12,04,03,46,11.80
2007,12,04,03,47,11.80
2007,12,04,03,48,11.80
2007,12,04,03,49,11.80
2007,12,04,03,50,11.70
2007,12,04,03,51,11.70
2007,12,04,03,52,11.60
2007,12,04,03,53,11.60
2007,12,04,03,54,11.60
2007,12,04,03,55,11.60
2007,12,04,03,56,11.60
2007,12,04,03,57,11.70
2007,12,04,03,58,11.70
2007,12,04,03,59,11.70
2007,12,04,04,00,11.80
2007,12,04,04,01,11.80
2007,12,04,04,02,11.80
2007,12,04,04,03,11.80
2007,12,04,04,04,11.80
2007,12,04,04,05,11.90
2007,12,04,04,06,11.90
2007,12,04,04,07,11.90
2007,12,04,04,08,11.90
2007,12,04,04,09,11.90
2007,12,04,04,10,11.90
2007,12,04,04,11,11.90
2007,12,04,04,12,11.90
2007,12,04,04,13,11.90
2007,12,04,04,14,11.80
2007,12,04,04,15,11.80
2007,12,04,04,16,11.90
2007,12,04,04,17,11.90
2007,12,04,04,18,11.90
2007,12,04,04,19,11.90
2007,12,04,04,20,11.90
2007,12,04,04,21,11.80
2007,12,04,04,22,11.80
2007,12,04,04,23,11.90
2007,12,04,04,24,11.90
2007,12,04,04,25,11.90
2007,12,04,04,26,11.90
2007,12,04,04,27,11.90
2007,12,04,04,28,11.90
2007,12,04,04,29,11.90
2007,12,04,04,30,11.90
2007,12,04,04,31,11.90
2007,12,04,04,32,11.90
2007,12,04,04,33,11.90
2007,12,04,04,34,11.90
2007,12,04,04,35,11.90
2007,12,04,04,36,11.90
2007,12,04,04,37,12.00
2007,12,04,04,38,12.00
2007,12,04,04,39,11.90
2007,12,04,04,40,11.90
2007,12,04,04,41,11.90
2007,12,04,04,42,11.90
2007,12,04,04,43,11.80
2007,12,04,04,44,11.80
2007,12,04,04,45,11.80
2007,12,04,04,46,11.80
2007,12,04,04,47,11.80
2007,12,04,04,48,11.70
2007,12,04,04,49,11.80
2007,12,04,04,50,11.80
2007,12,04,04,51,11.80
2007,12,04,04,52,11.80
2007,12,04,04,53,11.80
2007,12,04,04,54,11.80
2007,12,04,04,55,11.80
2007,12,04,04,56,11.80
2007,12,04,04,57,11.80
2007,12,04,04,58,11.90
2007,12,04,04,59,11.90
2007,12,04,05,00,11.80
2007,12,04,05,01,11.90
2007,12,04,05,02,11.90
2007,12,04,05,03,11.80
2007,12,04,05,04,11.80
2007,12,04,05,05,11.80
2007,12,04,05,06,11.80
2007,12,04,05,07,11.80
2007,12,04,05,08,11.80
2007,12,04,05,09,11.70
2007,12,04,05,10,11.70
2007,12,04,05,11,11.70
2007,12,04,05,12,11.70
2007,12,04,05,13,11.70
2007,12,04,05,14,11.60
2007,12,04,05,15,11.60
2007,12,04,05,16,11.60
2007,12,04,05,17,11.60
2007,12,04,05,18,11.60
2007,12,04,05,19,11.50
2007,12,04,05,20,11.40
2007,12,04,05,21,11.40
2007,12,04,05,22,11.30
2007,12,04,05,23,11.30
2007,12,04,05,24,11.20
2007,12,04,05,25,11.20
2007,12,04,05,26,11.10
2007,12,04,05,27,11.10
2007,12,04,05,28,11.10
2007,12,04,05,29,11.00
2007,12,04,05,30,10.90
2007,12,04,05,31,10.90
2007,12,04,05,32,10.90
2007,12,04,05,33,10.90
2007,12,04,05,34,10.90
2007,12,04,05,35,10.90
2007,12,04,05,36,10.90
2007,12,04,05,37,10.80
2007,12,04,05,38,10.80
2007,12,04,05,39,10.80
2007,12,04,05,40,10.80
2007,12,04,05,41,10.80
2007,12,04,05,42,10.80
2007,12,04,05,43,10.80
2007,12,04,05,44,10.70
2007,12,04,05,45,10.70
2007,12,04,05,46,10.70
2007,12,04,05,47,10.70
2007,12,04,05,48,10.60
2007,12,04,05,49,10.60
2007,12,04,05,50,10.60
2007,12,04,05,51,10.60
2007,12,04,05,52,10.60
2007,12,04,05,53,10.60
2007,12,04,05,54,10.60
2007,12,04,05,55,10.60
2007,12,04,05,56,10.60
2007,12,04,05,57,10.60
2007,12,04,05,58,10.60
2007,12,04,05,59,10.60
2007,12,04,06,00,10.60
2007,12,04,06,01,10.40
2007,12,04,06,02,10.40
2007,12,04,06,03,10.40
2007,12,04,06,04,10.40
2007,12,04,06,05,10.40
2007,12,04,06,06,10.40
2007,12,04,06,07,10.40
2007,12,04,06,08,10.40
2007,12,04,06,09,10.40
2007,12,04,06,10,10.40
2007,12,04,06,11,10.40
2007,12,04,06,12,10.40
2007,12,04,06,13,10.40
2007,12,04,06,14,10.30
2007,12,04,06,15,10.30
2007,12,04,06,16,10.30
2007,12,04,06,17,10.30
2007,12,04,06,18,10.30
2007,12,04,06,19,10.30
2007,12,04,06,20,10.20
2007,12,04,06,21,10.10
2007,12,04,06,22,10.10
2007,12,04,06,23,10.00
2007,12,04,06,24,9.90
2007,12,04,06,25,9.90
2007,12,04,06,26,9.90
2007,12,04,06,27,9.90
2007,12,04,06,28,9.90
2007,12,04,06,29,9.90
2007,12,04,06,30,9.90
2007,12,04,06,31,9.90
2007,12,04,06,32,9.90
2007,12,04,06,33,9.90
2007,12,04,06,34,9.90
2007,12,04,06,35,9.90
2007,12,04,06,36,9.90
2007,12,04,06,37,9.90
2007,12,04,06,38,9.90
2007,12,04,06,39,9.90
2007,12,04,06,40,9.90
2007,12,04,06,41,10.00
2007,12,04,06,42,10.20
2007,12,04,06,43,10.30
2007,12,04,06,44,10.30
2007,12,04,06,45,10.40
2007,12,04,06,46,10.40
2007,12,04,06,47,10.50
2007,12,04,06,48,10.60
2007,12,04,06,49,10.60
2007,12,04,06,50,10.60
2007,12,04,06,51,10.60
2007,12,04,06,52,10.60
2007,12,04,06,53,10.60
2007,12,04,06,54,10.60
2007,12,04,06,55,10.70
2007,12,04,06,56,10.70
2007,12,04,06,57,10.70
2007,12,04,06,58,10.70
2007,12,04,06,59,10.70
2007,12,04,07,00,10.70
2007,12,04,07,01,10.60
2007,12,04,07,02,10.60
2007,12,04,07,03,10.60
2007,12,04,07,04,10.60
2007,12,04,07,05,10.60
2007,12,04,07,06,10.60
2007,12,04,07,07,10.50
2007,12,04,07,08,10.40
2007,12,04,07,09,10.40
2007,12,04,07,10,10.40
2007,12,04,07,11,10.40
2007,12,04,07,12,10.30
2007,12,04,07,13,10.30
2007,12,04,07,14,10.40
2007,12,04,07,15,10.40
2007,12,04,07,16,10.40
2007,12,04,07,17,10.40
2007,12,04,07,18,10.40
2007,12,04,07,19,10.50
2007,12,04,07,20,10.60
2007,12,04,07,21,10.60
2007,12,04,07,22,10.60
2007,12,04,07,23,10.60
2007,12,04,07,24,10.60
2007,12,04,07,25,10.70
2007,12,04,07,26,10.70
2007,12,04,07,27,10.70
2007,12,04,07,28,10.80
2007,12,04,07,29,10.80
2007,12,04,07,30,10.80
2007,12,04,07,31,10.70
2007,12,04,07,32,10.70
2007,12,04,07,33,10.70
2007,12,04,07,34,10.70
2007,12,04,07,35,10.70
2007,12,04,07,36,10.70
2007,12,04,07,37,10.60
2007,12,04,07,38,10.60
2007,12,04,07,39,10.60
2007,12,04,07,40,10.60
2007,12,04,07,41,10.60
2007,12,04,07,42,10.60
2007,12,04,07,43,10.60
2007,12,04,07,44,10.70
2007,12,04,07,45,10.70
2007,12,04,07,46,10.80
2007,12,04,07,47,10.80
2007,12,04,07,48,10.70
2007,12,04,07,49,10.70
2007,12,04,07,50,10.60
2007,12,04,07,51,10.60
2007,12,04,07,52,10.60
2007,12,04,07,53,10.60
2007,12,04,07,54,10.60
2007,12,04,07,55,10.70
2007,12,04,07,56,10.70
2007,12,04,07,57,10.70
2007,12,04,07,58,10.60
2007,12,04,07,59,10.60
2007,12,04,08,00,10.60
2007,12,04,08,01,10.60
2007,12,04,08,02,10.60
2007,12,04,08,03,10.70
2007,12,04,08,04,10.70
2007,12,04,08,05,10.70
2007,12,04,08,06,10.70
2007,12,04,08,07,10.70
2007,12,04,08,08,10.70
2007,12,04,08,09,10.70
2007,12,04,08,10,10.60
2007,12,04,08,11,10.60
2007,12,04,08,12,10.60
2007,12,04,08,13,10.40
2007,12,04,08,14,10.40
2007,12,04,08,15,10.40
2007,12,04,08,16,10.40
2007,12,04,08,17,10.30
2007,12,04,08,18,10.30
2007,12,04,08,19,10.30
2007,12,04,08,20,10.30
2007,12,04,08,21,10.20
2007,12,04,08,22,10.20
2007,12,04,08,23,10.20
2007,12,04,08,24,10.20
2007,12,04,08,25,10.40
2007,12,04,08,26,10.50
2007,12,04,08,27,10.60
2007,12,04,08,28,10.60
2007,12,04,08,29,10.70
2007,12,04,08,30,10.70
2007,12,04,08,31,10.70
2007,12,04,08,32,10.70
2007,12,04,08,33,10.70
2007,12,04,08,34,10.70
2007,12,04,08,35,10.70
2007,12,04,08,36,10.80
2007,12,04,08,37,10.70
2007,12,04,08,38,10.80
2007,12,04,08,39,10.80
2007,12,04,08,40,10.90
2007,12,04,08,41,10.90
2007,12,04,08,42,10.90
2007,12,04,08,43,10.90
2007,12,04,08,44,10.90
2007,12,04,08,45,10.90
2007,12,04,08,46,10.90
2007,12,04,08,47,10.90
2007,12,04,08,48,10.90
2007,12,04,08,49,11.00
2007,12,04,08,50,11.10
2007,12,04,08,51,11.10
2007,12,04,08,52,11.10
2007,12,04,08,53,11.10
2007,12,04,08,54,11.10
2007,12,04,08,55,11.10
2007,12,04,08,56,11.10
2007,12,04,08,57,11.10
2007,12,04,08,58,11.10
2007,12,04,08,59,11.10
2007,12,04,09,00,11.10
2007,12,04,09,01,11.10
2007,12,04,09,02,11.00
2007,12,04,09,03,10.90
2007,12,04,09,04,10.90
2007,12,04,09,05,10.90
2007,12,04,09,06,10.90
2007,12,04,09,07,11.00
2007,12,04,09,08,11.10
2007,12,04,09,09,11.10
2007,12,04,09,10,11.10
2007,12,04,09,11,11.10
2007,12,04,09,12,11.10
2007,12,04,09,13,11.10
2007,12,04,09,14,11.10
2007,12,04,09,15,11.10
2007,12,04,09,16,10.90
2007,12,04,09,17,10.90
2007,12,04,09,18,10.90
2007,12,04,09,19,10.90
2007,12,04,09,20,10.90
2007,12,04,09,21,10.90
2007,12,04,09,22,10.90
2007,12,04,09,23,10.90
2007,12,04,09,24,10.90
2007,12,04,09,25,10.90
2007,12,04,09,26,10.90
2007,12,04,09,27,10.90
2007,12,04,09,28,10.90
2007,12,04,09,29,11.00
2007,12,04,09,30,11.10
2007,12,04,09,31,11.10
2007,12,04,09,32,11.10
2007,12,04,09,33,11.10
2007,12,04,09,34,11.10
2007,12,04,09,35,11.20
2007,12,04,09,36,11.20
2007,12,04,09,37,11.20
2007,12,04,09,38,11.20
2007,12,04,09,39,11.10
2007,12,04,09,40,11.10
2007,12,04,09,41,11.10
2007,12,04,09,42,11.10
2007,12,04,09,43,11.10
2007,12,04,09,44,11.10
2007,12,04,09,45,11.10
2007,12,04,09,46,11.10
2007,12,04,09,47,11.10
2007,12,04,09,48,11.00
2007,12,04,09,49,10.90
2007,12,04,09,50,10.90
2007,12,04,09,51,10.90
2007,12,04,09,52,10.90
2007,12,04,09,53,10.90
2007,12,04,09,54,10.90
2007,12,04,09,55,10.90
2007,12,04,09,56,11.00
2007,12,04,09,57,11.10
2007,12,04,09,58,11.20
2007,12,04,09,59,11.20
2007,12,04,10,00,11.30
2007,12,04,10,01,11.30
2007,12,04,10,02,11.30
2007,12,04,10,03,11.40
2007,12,04,10,04,11.30
2007,12,04,10,05,11.30
2007,12,04,10,06,11.20
2007,12,04,10,07,11.20
2007,12,04,10,08,11.10
2007,12,04,10,09,11.10
2007,12,04,10,10,11.10
2007,12,04,10,11,11.10
2007,12,04,10,12,11.10
2007,12,04,10,13,11.10
2007,12,04,10,14,11.10
2007,12,04,10,15,11.10
2007,12,04,10,16,11.10
2007,12,04,10,17,11.10
2007,12,04,10,18,11.20
2007,12,04,10,19,11.20
2007,12,04,10,20,11.20
2007,12,04,10,21,11.10
2007,12,04,10,22,11.10
2007,12,04,10,23,11.10
2007,12,04,10,24,11.10
2007,12,04,10,25,11.10
2007,12,04,10,26,11.00
2007,12,04,10,27,10.90
2007,12,04,10,28,10.90
2007,12,04,10,29,10.90
2007,12,04,10,30,10.90
2007,12,04,10,31,10.90
2007,12,04,10,32,10.90
2007,12,04,10,33,10.90
2007,12,04,10,34,10.90
2007,12,04,10,35,10.90
2007,12,04,10,36,10.90
2007,12,04,10,37,10.90
2007,12,04,10,38,10.90
2007,12,04,10,39,10.80
2007,12,04,10,40,10.80
2007,12,04,10,41,10.80
2007,12,04,10,42,10.70
2007,12,04,10,43,10.70
2007,12,04,10,44,10.70
2007,12,04,10,45,10.70
2007,12,04,10,46,10.70
2007,12,04,10,47,10.80
2007,12,04,10,48,10.80
2007,12,04,10,49,10.80
2007,12,04,10,50,10.80
2007,12,04,10,51,10.90
2007,12,04,10,52,10.90
2007,12,04,10,53,10.90
2007,12,04,10,54,10.80
2007,12,04,10,55,10.80
2007,12,04,10,56,10.80
2007,12,04,10,57,10.80
2007,12,04,10,58,10.70
2007,12,04,10,59,10.70
2007,12,04,11,00,10.70
2007,12,04,11,01,10.60
2007,12,04,11,02,10.60
2007,12,04,11,03,10.60
2007,12,04,11,04,10.60
2007,12,04,11,05,10.60
2007,12,04,11,06,10.60
2007,12,04,11,07,10.60
2007,12,04,11,08,10.50
2007,12,04,11,09,10.40
2007,12,04,11,10,10.40
2007,12,04,11,11,10.40
2007,12,04,11,12,10.40
2007,12,04,11,13,10.40
2007,12,04,11,14,10.40
2007,12,04,11,15,10.40
2007,12,04,11,16,10.40
2007,12,04,11,17,10.40
2007,12,04,11,18,10.40
2007,12,04,11,19,10.40
2007,12,04,11,20,10.40
2007,12,04,11,21,10.40
2007,12,04,11,22,10.40
2007,12,04,11,23,10.40
2007,12,04,11,24,10.40
2007,12,04,11,25,10.40
2007,12,04,11,26,10.40
2007,12,04,11,27,10.40
2007,12,04,11,28,10.40
2007,12,04,11,29,10.40
2007,12,04,11,30,10.40
2007,12,04,11,31,10.40
2007,12,04,11,32,10.40
2007,12,04,11,33,10.40
2007,12,04,11,34,10.40
2007,12,04,11,35,10.40
2007,12,04,11,36,10.40
2007,12,04,11,37,10.40
2007,12,04,11,38,10.40
2007,12,04,11,39,10.40
2007,12,04,11,40,10.40
2007,12,04,11,41,10.40
2007,12,04,11,42,10.40
2007,12,04,11,43,10.40
2007,12,04,11,44,10.40
2007,12,04,11,45,10.30
2007,12,04,11,46,10.30
2007,12,04,11,47,10.30
2007,12,04,11,48,10.20
2007,12,04,11,49,10.20
2007,12,04,11,50,10.20
2007,12,04,11,51,10.20
2007,12,04,11,52,10.20
2007,12,04,11,53,10.20
2007,12,04,11,54,10.20
2007,12,04,11,55,10.20
2007,12,04,11,56,10.20
2007,12,04,11,57,10.20
2007,12,04,11,58,10.20
2007,12,04,11,59,10.20
2007,12,04,12,00,10.20
2007,12,04,12,01,10.20
2007,12,04,12,02,10.20
2007,12,04,12,03,10.20
2007,12,04,12,04,10.20
2007,12,04,12,05,10.20
2007,12,04,12,06,10.20
2007,12,04,12,07,10.20
2007,12,04,12,08,10.20
2007,12,04,12,09,10.20
2007,12,04,12,10,10.20
2007,12,04,12,11,10.20
2007,12,04,12,12,10.20
2007,12,04,12,13,10.20
2007,12,04,12,14,10.20
2007,12,04,12,15,10.20
2007,12,04,12,16,10.20
2007,12,04,12,17,10.20
2007,12,04,12,18,10.20
2007,12,04,12,19,10.20
2007,12,04,12,20,10.20
2007,12,04,12,21,10.20
2007,12,04,12,22,10.20
2007,12,04,12,23,10.20
2007,12,04,12,24,10.20
2007,12,04,12,25,10.20
2007,12,04,12,26,10.20
2007,12,04,12,27,10.20
2007,12,04,12,28,10.20
2007,12,04,12,29,10.20
2007,12,04,12,30,10.20
2007,12,04,12,31,10.20
2007,12,04,12,32,10.20
2007,12,04,12,33,10.20
2007,12,04,12,34,10.20
2007,12,04,12,35,10.30
2007,12,04,12,36,10.30
2007,12,04,12,37,10.30
2007,12,04,12,38,10.30
2007,12,04,12,39,10.30
2007,12,04,12,40,10.30
2007,12,04,12,41,10.20
2007,12,04,12,42,10.20
2007,12,04,12,43,10.20
2007,12,04,12,44,10.20
2007,12,04,12,45,10.20
2007,12,04,12,46,10.20
2007,12,04,12,47,10.20
2007,12,04,12,48,10.20
2007,12,04,12,49,10.20
2007,12,04,12,50,10.10
2007,12,04,12,51,10.10
2007,12,04,12,52,10.10
2007,12,04,12,53,10.10
2007,12,04,12,54,10.10
2007,12,04,12,55,10.10
2007,12,04,12,56,10.10
2007,12,04,12,57,10.10
2007,12,04,12,58,10.10
2007,12,04,12,59,10.10
2007,12,04,13,00,10.10
2007,12,04,13,01,10.10
2007,12,04,13,02,10.10
2007,12,04,13,03,10.10
2007,12,04,13,04,10.10
2007,12,04,13,05,10.10
2007,12,04,13,06,10.10
2007,12,04,13,07,10.10
2007,12,04,13,08,10.10
2007,12,04,13,09,10.10
2007,12,04,13,10,10.10
2007,12,04,13,11,10.10
2007,12,04,13,12,10.10
2007,12,04,13,13,10.10
2007,12,04,13,14,10.10
2007,12,04,13,15,10.10
2007,12,04,13,16,10.10
2007,12,04,13,17,10.10
2007,12,04,13,18,10.10
2007,12,04,13,19,10.10
2007,12,04,13,20,10.10
2007,12,04,13,21,10.10
2007,12,04,13,22,10.10
2007,12,04,13,23,10.10
2007,12,04,13,24,10.10
2007,12,04,13,25,10.10
2007,12,04,13,26,10.10
2007,12,04,13,27,10.10
2007,12,04,13,28,10.10
2007,12,04,13,29,10.10
2007,12,04,13,30,10.10
2007,12,04,13,31,10.10
2007,12,04,13,32,10.10
2007,12,04,13,33,10.10
2007,12,04,13,34,10.10
2007,12,04,13,35,10.10
2007,12,04,13,36,10.10
2007,12,04,13,37,10.10
2007,12,04,13,38,10.10
2007,12,04,13,39,10.10
2007,12,04,13,40,10.00
2007,12,04,13,41,9.90
2007,12,04,13,42,9.90
2007,12,04,13,43,9.90
2007,12,04,13,44,9.90
2007,12,04,13,45,9.90
2007,12,04,13,46,9.90
2007,12,04,13,47,9.90
2007,12,04,13,48,9.90
2007,12,04,13,49,9.90
2007,12,04,13,50,9.90
2007,12,04,13,51,9.90
2007,12,04,13,52,9.90
2007,12,04,13,53,9.90
2007,12,04,13,54,9.90
2007,12,04,13,55,10.00
2007,12,04,13,56,10.10
2007,12,04,13,57,10.10
2007,12,04,13,58,10.10
2007,12,04,13,59,10.10
2007,12,04,14,00,10.10
2007,12,04,14,01,10.10
2007,12,04,14,02,10.10
2007,12,04,14,03,10.20
2007,12,04,14,04,10.20
2007,12,04,14,05,10.20
2007,12,04,14,06,10.20
2007,12,04,14,07,10.20
2007,12,04,14,08,10.20
2007,12,04,14,09,10.20
2007,12,04,14,10,10.20
2007,12,04,14,11,10.20
2007,12,04,14,12,10.20
2007,12,04,14,13,10.20
2007,12,04,14,14,10.20
2007,12,04,14,15,10.20
2007,12,04,14,16,10.20
2007,12,04,14,17,10.30
2007,12,04,14,18,10.30
2007,12,04,14,19,10.30
2007,12,04,14,20,10.30
2007,12,04,14,21,10.30
2007,12,04,14,22,10.30
2007,12,04,14,23,10.30
2007,12,04,14,24,10.30
2007,12,04,14,25,10.30
2007,12,04,14,26,10.30
2007,12,04,14,27,10.30
2007,12,04,14,28,10.30
2007,12,04,14,29,10.40
2007,12,04,14,30,10.30
2007,12,04,14,31,10.30
2007,12,04,14,32,10.30
2007,12,04,14,33,10.30
2007,12,04,14,34,10.20
2007,12,04,14,35,10.20
2007,12,04,14,36,10.20
2007,12,04,14,37,10.20
2007,12,04,14,38,10.20
2007,12,04,14,39,10.30
2007,12,04,14,40,10.30
2007,12,04,14,41,10.30
2007,12,04,14,42,10.20
2007,12,04,14,43,10.20
2007,12,04,14,44,10.20
2007,12,04,14,45,10.20
2007,12,04,14,46,10.20
2007,12,04,14,47,10.20
2007,12,04,14,48,10.20
2007,12,04,14,49,10.20
2007,12,04,14,50,10.20
2007,12,04,14,51,10.20
2007,12,04,14,52,10.10
2007,12,04,14,53,10.10
2007,12,04,14,54,10.10
2007,12,04,14,55,10.10
2007,12,04,14,56,10.10
2007,12,04,14,57,10.20
2007,12,04,14,58,10.20
2007,12,04,14,59,10.20
2007,12,04,15,00,10.20
2007,12,04,15,01,10.20
2007,12,04,15,02,10.20
2007,12,04,15,03,10.20
2007,12,04,15,04,10.20
2007,12,04,15,05,10.20
2007,12,04,15,06,10.20
2007,12,04,15,07,10.20
2007,12,04,15,08,10.10
2007,12,04,15,09,10.20
2007,12,04,15,10,10.20
2007,12,04,15,11,10.20
2007,12,04,15,12,10.20
2007,12,04,15,13,10.20
2007,12,04,15,14,10.20
2007,12,04,15,15,10.20
2007,12,04,15,16,10.20
2007,12,04,15,17,10.20
2007,12,04,15,18,10.20
2007,12,04,15,19,10.20
2007,12,04,15,20,10.20
2007,12,04,15,21,10.20
2007,12,04,15,22,10.20
2007,12,04,15,23,10.20
2007,12,04,15,24,10.20
2007,12,04,15,25,10.20
2007,12,04,15,26,10.30
2007,12,04,15,27,10.30
2007,12,04,15,28,10.30
2007,12,04,15,29,10.30
2007,12,04,15,30,10.30
2007,12,04,15,31,10.30
2007,12,04,15,32,10.20
2007,12,04,15,33,10.20
2007,12,04,15,34,10.20
2007,12,04,15,35,10.20
2007,12,04,15,36,10.20
2007,12,04,15,37,10.10
2007,12,04,15,38,10.10
2007,12,04,15,39,10.20
2007,12,04,15,40,10.20
2007,12,04,15,41,10.20
2007,12,04,15,42,10.20
2007,12,04,15,43,10.30
2007,12,04,15,44,10.30
2007,12,04,15,45,10.30
2007,12,04,15,46,10.30
2007,12,04,15,47,10.30
2007,12,04,15,48,10.20
2007,12,04,15,49,10.20
2007,12,04,15,50,10.20
2007,12,04,15,51,10.20
2007,12,04,15,52,10.20
2007,12,04,15,53,10.20
2007,12,04,15,54,10.20
2007,12,04,15,55,10.20
2007,12,04,15,56,10.20
2007,12,04,15,57,10.20
2007,12,04,15,58,10.20
2007,12,04,15,59,10.20
2007,12,04,16,00,10.10
2007,12,04,16,01,10.10
2007,12,04,16,02,10.10
2007,12,04,16,03,10.10
2007,12,04,16,04,10.10
2007,12,04,16,05,10.10
2007,12,04,16,06,10.10
2007,12,04,16,07,10.10
2007,12,04,16,08,10.10
2007,12,04,16,09,10.10
2007,12,04,16,10,10.10
2007,12,04,16,11,10.10
2007,12,04,16,12,10.10
2007,12,04,16,13,10.10
2007,12,04,16,14,10.10
2007,12,04,16,15,10.10
2007,12,04,16,16,10.10
2007,12,04,16,17,10.10
2007,12,04,16,18,10.10
2007,12,04,16,19,10.10
2007,12,04,16,20,10.10
2007,12,04,16,21,10.10
2007,12,04,16,22,10.10
2007,12,04,16,23,10.10
2007,12,04,16,24,10.10
2007,12,04,16,25,10.10
2007,12,04,16,26,10.00
2007,12,04,16,27,9.90
2007,12,04,16,28,9.90
2007,12,04,16,29,9.90
2007,12,04,16,30,10.00
2007,12,04,16,31,10.10
2007,12,04,16,32,10.10
2007,12,04,16,33,10.10
2007,12,04,16,34,10.10
2007,12,04,16,35,10.10
2007,12,04,16,36,10.10
2007,12,04,16,37,10.10
2007,12,04,16,38,10.10
2007,12,04,16,39,10.00
2007,12,04,16,40,9.90
2007,12,04,16,41,9.90
2007,12,04,16,42,9.90
2007,12,04,16,43,9.90
2007,12,04,16,44,9.90
2007,12,04,16,45,9.90
2007,12,04,16,46,9.90
2007,12,04,16,47,9.90
2007,12,04,16,48,9.90
2007,12,04,16,49,9.80
2007,12,04,16,50,9.70
2007,12,04,16,51,9.70
2007,12,04,16,52,9.70
2007,12,04,16,53,9.70
2007,12,04,16,54,9.70
2007,12,04,16,55,9.70
2007,12,04,16,56,9.80
2007,12,04,16,57,9.90
2007,12,04,16,58,9.90
2007,12,04,16,59,9.90
2007,12,04,17,00,9.90
2007,12,04,17,01,9.90
2007,12,04,17,02,9.90
2007,12,04,17,03,9.90
2007,12,04,17,04,9.90
2007,12,04,17,05,9.90
2007,12,04,17,06,9.90
2007,12,04,17,07,9.90
2007,12,04,17,08,9.90
2007,12,04,17,09,9.90
2007,12,04,17,10,9.90
2007,12,04,17,11,9.90
2007,12,04,17,12,9.90
2007,12,04,17,13,9.90
2007,12,04,17,14,9.90
2007,12,04,17,15,9.80
2007,12,04,17,16,9.80
2007,12,04,17,17,9.80
2007,12,04,17,18,9.70
2007,12,04,17,19,9.70
2007,12,04,17,20,9.70
2007,12,04,17,21,9.60
2007,12,04,17,22,9.60
2007,12,04,17,23,9.50